Regional Weather Roundup
Issued by NWS

Home | Current Version | Previous Version | Graphics & Text | Print | Product List | Glossary On
Versions: 1 2 3 4 5 6 7 8 9 10 11 12 13 14 15 16 17 18 19 20 21 22 23 24 25 26 27 28 29 30 31 32 33 34 35 36 37 38 39 40 41 42 43 44 45 46 47 48 49 50
000
ASUS45 KBOU 271307
RWRCO

WEATHER ROUNDUP FOR COLORADO
NATIONAL WEATHER SERVICE DENVER/BOULDER CO
700 AM MDT WED AUG 27 2014

NOTE: "FAIR" INDICATES FEW OR NO CLOUDS BELOW 12000 FEET WITH NO
SIGNIFICANT WEATHER AND/OR OBSTRUCTIONS TO VISIBILITY.

COZ001>005-013-030-031-271400-
...NORTHWEST COLORADO...

CITY           SKY/WX    TMP DP  RH WIND       PRES   REMARKS
CRAIG          CLOUDY    54  51  90 SE3       30.30R
HAYDEN         CLOUDY    52  46  82 CALM      30.31R
MEEKER         RAIN      54  51  90 CALM      30.30R FOG
MOUNT WERNER   NOT AVBL
STEAMBOAT SPGS CLOUDY    50  50  98 SE3       30.32R
WALDEN         CLOUDY    50  46  87 S5        30.36R
$$

COZ006>008-011-271400-
...WEST CENTRAL VALLEYS...

CITY           SKY/WX    TMP DP  RH WIND       PRES   REMARKS
GRAND JUNCTION LGT RAIN  57  55  93 SE8       30.23R
MONTROSE       MOCLDY    55  53  93 SE6       30.32R
EAGLE          MOCLDY    54  54 100 CALM      30.33R
RIFLE          CLOUDY    55  54  96 CALM      30.27R
DELTA          RAIN      57  57  99 CALM      30.30R
NUCLA          MOCLDY    54  52  94 E9        30.35R
$$

COZ017>023-064>068-271400-
...SOUTHWEST COLORADO...

CITY           SKY/WX    TMP DP  RH WIND       PRES   REMARKS
DURANGO        CLOUDY    50  49  96 N5        30.37R
CORTEZ         CLOUDY    52  52 100 CALM      30.34R
PAGOSA SPRINGS CLOUDY    50  50 100 CALM      30.41R
TELLURIDE      MOCLDY    45  45 100 CALM      30.45R
WOLF CREEK PAS SNOW      36  36 100 SW16G22   30.59R VSB 1/4
$$

COZ009-010-012-014-032>034-037-058>063-271400-
...CENTRAL COLORADO...

CITY           SKY/WX    TMP DP  RH WIND       PRES   REMARKS
ASPEN          CLOUDY    51  49  92 SW3       30.36R
BUENA VISTA    MOCLDY    49  48  95 NW3       30.35S
COPPER MTN     CLOUDY    45  37  76 S13G20    30.57R
BERTHOUD PASS  FOG       36  34  93 NW9       30.59S VSB<1/4
COTTONWOOD PAS CLOUDY    48  43  81 NW3       30.44S
GUNNISON       CLOUDY    48  43  81 N3        30.40R
KREMMLING      CLOUDY    52  48  87 CALM      30.35R
LEADVILLE      CLOUDY    44  42  93 E5        30.44R
MONARCH PASS   LGT RAIN  37  37 100 W22       30.65R VSB<1/4
SALIDA         MOCLDY    54  51  91 CALM      30.40R
SUNLIGHT       FOG       43  43 100 CALM      30.51R VSB 3/4
WILKERSON PASS NOT AVBL
$$

COZ069>075-271400-
...SAN LUIS VALLEY/SANGRE DE CRISTO MOUNTAINS...

CITY           SKY/WX    TMP DP  RH WIND       PRES   REMARKS
ALAMOSA        MOCLDY    50  48  93 CALM      30.34R
LA VETA PASS   NOT AVBL
SAGUACHE       MOCLDY    50  50 100 CALM      30.38R
$$

COZ035-036-038>040-271400-
...NORTHERN COLORADO FRONT RANGE...

CITY           SKY/WX    TMP DP  RH WIND       PRES   REMARKS
DENVER INTL AP CLOUDY    59  56  89 S5        30.16R
DMNS CITY PARK   N/A     59  55  87 SW3       30.17R
AURORA         MOCLDY    59  55  88 S3        30.18S
FRONT RANGE AP CLOUDY    61  57  88 SE3       30.18S
ERIE MUNI ARPT CLOUDY    60  57  91 CALM      30.15R
BOULDER MUN AP CLOUDY    61  55  82 CALM      30.16R
CENTENNIAL     CLOUDY    58  54  86 S5        30.19R
BROOMFIELD     MOCLDY    61  55  82 CALM      30.19R
FORT COLLINS   CLOUDY    59  55  88 N8        30.16S
LONGMONT       CLOUDY    61  57  86 CALM      30.17R
$$

COZ041-046-047-076>085-087-088-271400-
...PIKES PEAK/PALMER DIVIDE AND SOUTHERN FOOTHILLS...

CITY           SKY/WX    TMP DP  RH WIND       PRES   REMARKS
COLO. SPRINGS  MOCLDY    58  54  86 CALM      30.23R
A. F. ACADEMY  CLOUDY    54  53  99 N5        30.24R
ELLICOTT       FOG       55  55 100 SE5       30.22R VSB<1/4
FALCON         MOCLDY    55  54  97 NW3       30.26R
FORT CARSON    MOCLDY    56  53  91 NW3       30.21R
LIMON          CLOUDY    60  59  96 SE8       30.18S
MONUMENT HILL  CLOUDY    52  50  93 SW5       30.24F
TRINIDAD       CLOUDY    62  54  74 SW5       30.21R
$$

COZ042>045-048>051-090-091-271400-
...NORTHEAST COLORADO...

CITY           SKY/WX    TMP DP  RH WIND       PRES   REMARKS
GREELEY ARPT   CLOUDY    61  52  72 N5        30.14S
AKRON          MOCLDY    61  59  93 SE9       30.15R
BURLINGTON     CLOUDY    62  61  96 S10       30.16R
WRAY             N/A     64  64 100 SE8       30.13S
STERLING       MOCLDY    64  63  94 CALM      30.11R
HOLYOKE        PTCLDY    63  61  94 SE7       30.13R
FORT MORGAN    MOCLDY    60  57  91 CALM      30.14R
$$

COZ086-089-092>099-271400-
...SOUTHEAST COLORADO...

CITY           SKY/WX    TMP DP  RH WIND       PRES   REMARKS
PUEBLO         MOCLDY    58  56  93 CALM      30.16R
LA JUNTA       CLEAR     62  61  96 SE3       30.13R
LAMAR          CLOUDY    64  62  93 E9        30.13R
SPRINGFIELD      N/A     64  62  93 S10       30.18R
$$



USA.gov is the U.S. government's official web portal to all federal, state and local government web resources and services.